Location: Artiguedieu
(43.5000°N, 0.5454°E)
Time: 21:24:50
(UTC+00:00)

Vanguard 1 - Pass Details

Date: 02 August 2021
Orbit: 652 x 3831 km, 34.3° (Epoch: 19 September)

Event Time Altitude Azimuth Distance (km) Brightness Sun altitude
Rises 11:10:38 0° 242° (WSW) 3,044 12.6 61.8°
Reaches altitude 10° 11:12:51 10° 232° (SW) 2,250 12.1 62.0°
Maximum altitude 11:17:26 34° 167° (SSE) 1,474 12.3 62.3°
Drops below altitude 10° 11:24:16 10° 105° (ESE) 3,393 13.2 62.8°
Sets 11:28:24 0° 98° (E) 4,880 13.8 63.1°
